LFKCLFKJ

Guest
Details From LFKC - St Catherine
To LFKJ - Napoleon Bonaparte
Flight Number -
Tags generated
Created
Modified
Stats Distance 37 nm / 68 km
Max Altitude 2,700 ft / 823 m
Waypoints 3
Social Downloads 2
Likes 0
Share VATSIM

Download

Looking for another format? Having issues loading an existing format? Contact us
Advertisement - Login to hide

Notes

Basic altitude profile: - Ascent Rate: 2500ft/min - Ascent Speed: 250kts - Cruise Altitude: 35000ft - Cruise Speed: 420kts - Descent Rate: 1500ft/min - Descent Speed: 250kts Options: - Use NATs: yes - Use PACOTS: yes - Use low airways: yes - Use high airways: yes

Route

LFKC VICCO LFKJ

ID Type Via Altitude (ft/m) Position (lat/lon) Dist (leg/tot) Name
O LFKC APT - 0 / 0 42.53076 / 8.79292 - / 0 nm St Catherine
VICCO FIX - 2,700 / 823 42.13944 / 8.81583 23 / 23 nm
O LFKJ APT - 0 / 0 41.92289 / 8.79959 13 / 36 nm Napoleon Bonaparte

Altitude Profile

Advertisement - Login to hide

LFKC

Details ICAO LFKC (CLY)
Name St Catherine
Region France
Timezone Europe/Paris (UTC+1.0)
Stats Elevation 208 ft / 63 m (AMSL)
Location 42.530800° 8.792980°
Runways 1
Magnetic Variation 2.450° E

METAR

LFKC 110830Z AUTO 19005KT CAVOK 11/05 Q1018 NOSIG

Decode

TAF

TAF LFKC 110800Z 1109/1209 34008KT CAVOK TX15/1113Z TN05/1204Z BECMG 1118/1120 18004KT

Decode

Departure Runways

ID Width Length Bearing (true/mag) Surface Threshold Overrun Markings Lighting
18 131 ft / 40 m 7,586 ft / 2,312 m 179.81° / 177.36° CONCRETE 0 ft / 0 m 0 ft / 0 m APP CENTERLINE EDGE THRESHOLD
36 131 ft / 40 m 7,586 ft / 2,312 m 359.81° / 357.36° CONCRETE 663 ft / 202 m 0 ft / 0 m APP CENTERLINE EDGE THRESHOLD ALSF-I

LFKJ

Details ICAO LFKJ (AJA)
Name Napoleon Bonaparte
Region France
Timezone Europe/Paris (UTC+1.0)
Stats Elevation 19 ft / 6 m (AMSL)
Location 41.921700° 8.801090°
Runways 1
Magnetic Variation 2.436° E

METAR

LFKJ 110830Z AUTO 03006KT CAVOK 08/05 Q1018 NOSIG

Decode

TAF

TAF LFKJ 110800Z 1109/1209 24008KT CAVOK BECMG 1118/1120 05005KT BECMG 1203/1206 BKN030

Decode

Destination Runways

ID Width Length Bearing (true/mag) Surface Threshold Overrun Markings Lighting
02 148 ft / 45 m 7,904 ft / 2,409 m 24.84° / 22.40° CONCRETE 0 ft / 0 m 161 ft / 49 m PREC-APP CENTERLINE EDGE THRESHOLD REIL-OMNI
20 148 ft / 45 m 7,904 ft / 2,409 m 204.85° / 202.41° CONCRETE 741 ft / 226 m 230 ft / 70 m PREC-APP CENTERLINE EDGE THRESHOLD REIL-OMNI

Approach Navaids

Runway Type Ident Frequency Range Bearing (true/mag) Slope Elevation
02 GS AC 110.30 MHz 27 nm / 50 km 24.85° / 22.41 ° 3.00° 19 ft / 6 m (AMSL)
02 DME AC 110.30 MHz 27 nm / 50 km - - 18 ft / 5 m (AMSL)
02 OM OM - - 24.94° / 22.51 ° - 17 ft / 5 m (AMSL)
02 LOC-ILS AC 110.30 MHz 27 nm / 50 km 24.85° / 22.41 ° - 19 ft / 6 m (AMSL)

Popular Alternatives